Date String (YYYY-MM-DD hh:mm:ss) UTC,Instrument flags,Ambient pressure (hPa),Sample flow (lpm),Bypass flow (lpm),Sample temperature (°C),Ambient temperature (°C),ASC tube jacket temperature (°C),LED temperature (°C),Box temperature (°C),Sample RH (%),Span deviation,Mass concentration (μg/m³),Mass concentration (μg/m³),Mass concentration (μg/m³)
DateTimeUTC,F1_M11,P_M11,Q1_M11,Q2_M11,T1_M11,T2_M11,T3_M11,T4_M11,T5_M11,U1_M11,ZSPAN_M11,X2_M11,X0_M11,X1_M11
2023-04-06 15:00:00,,0835.3,5.00,0.00,22.2,20.6,00.0,30.7,23.7,10.7,0000.0,0003.38,0007.60,0002.72
2023-04-06 15:01:00,,0835.5,5.01,0.00,22.4,22.0,00.0,30.6,24.2,10.7,0000.0,0003.41,0007.79,0002.77
2023-04-06 15:02:00,,0835.4,4.99,0.00,22.5,23.4,00.0,30.7,24.6,09.7,0000.0,0003.38,0008.33,0002.69
2023-04-06 15:03:00,,0835.4,4.99,0.00,22.6,23.3,00.0,30.7,24.4,08.0,0000.0,0003.25,0008.05,0002.50
2023-04-06 15:04:00,,0835.4,5.00,0.00,22.6,22.8,00.0,30.8,24.1,09.3,0000.0,0003.15,0007.30,0002.37
2023-04-06 15:05:00,,0835.3,5.00,0.00,22.5,22.2,00.0,30.8,23.9,09.8,0000.0,0003.12,0007.24,0002.33
2023-04-06 15:06:00,,0835.4,5.00,0.00,22.5,21.7,00.0,30.8,23.8,10.2,0000.0,0003.07,0006.98,0002.32
2023-04-06 15:07:00,,0835.4,5.00,0.00,22.4,21.3,00.0,30.8,23.7,10.0,0000.0,0002.95,0006.60,0002.27
2023-04-06 15:08:00,,0835.4,5.01,0.00,22.4,21.0,00.0,30.8,23.6,09.8,0000.0,0002.84,0006.57,0002.17
2023-04-06 15:09:00,,0835.5,5.01,0.00,22.3,20.6,00.0,30.8,23.5,10.2,0000.0,0002.83,0006.50,0002.13
2023-04-06 15:10:00,,0835.5,4.99,0.00,22.3,20.3,00.0,30.7,23.4,10.3,0000.0,0002.74,0006.17,0002.12
2023-04-06 15:11:00,,0835.4,4.99,0.00,22.2,20.1,00.0,30.7,23.4,10.2,0000.0,0002.62,0005.61,0002.09
2023-04-06 15:12:00,,0835.4,5.00,0.00,22.2,19.9,00.0,30.7,23.2,10.2,0000.0,0002.62,0005.61,0002.08
2023-04-06 15:13:00,,0835.3,5.00,0.00,22.1,19.8,00.0,30.6,23.2,10.1,0000.0,0002.68,0004.55,0002.14
2023-04-06 15:14:00,,0835.3,5.01,0.00,22.1,20.9,00.0,30.6,23.7,10.3,0000.0,0002.86,0004.78,0002.29
2023-04-06 15:15:00,,0835.4,4.99,0.00,22.3,22.4,00.0,30.6,24.2,10.7,0000.0,0003.05,0005.05,0002.43
2023-04-06 15:16:00,,0835.4,4.99,0.00,22.4,22.7,00.0,30.6,24.2,10.7,0000.0,0003.09,0005.37,0002.48
2023-04-06 15:17:00,,0835.4,4.99,0.00,22.4,22.3,00.0,30.7,24.0,10.2,0000.0,0003.12,0005.73,0002.52
2023-04-06 15:18:00,,0835.4,5.01,0.00,22.4,21.9,00.0,30.7,23.8,09.2,0000.0,0003.13,0005.76,0002.50
2023-04-06 15:19:00,,0835.4,5.01,0.00,22.4,21.5,00.0,30.7,23.7,09.0,0000.0,0003.11,0005.74,0002.47
2023-04-06 15:20:00,,0835.4,4.99,0.00,22.3,21.0,00.0,30.7,23.5,09.3,0000.0,0003.02,0005.62,0002.43
2023-04-06 15:21:00,,0835.4,4.99,0.00,22.2,20.6,00.0,30.7,23.4,09.2,0000.0,0002.98,0005.63,0002.38
2023-04-06 15:22:00,,0835.3,5.00,0.00,22.2,20.4,00.0,30.6,23.3,09.5,0000.0,0002.96,0005.73,0002.32
2023-04-06 15:23:00,,0835.3,5.02,0.00,22.1,20.2,00.0,30.6,23.3,10.0,0000.0,0002.87,0005.46,0002.28
2023-04-06 15:24:00,,0835.5,5.00,0.00,22.1,20.0,00.0,30.6,23.2,10.0,0000.0,0002.85,0005.57,0002.21
2023-04-06 15:25:00,,0835.4,5.00,0.00,22.0,19.9,00.0,30.6,23.2,09.2,0000.0,0002.81,0005.59,0002.14
2023-04-06 15:26:00,,0835.5,5.01,0.00,22.0,20.5,00.0,30.5,23.5,09.2,0000.0,0002.70,0005.33,0002.05
2023-04-06 15:27:00,,0835.5,5.00,0.00,22.2,22.0,00.0,30.5,24.0,09.3,0000.0,0002.59,0006.26,0001.97
2023-04-06 15:28:00,,0835.5,5.00,0.00,22.3,22.7,00.0,30.5,24.1,09.5,0000.0,0002.49,0005.78,0001.90
2023-04-06 15:29:00,,0835.5,4.99,0.00,22.3,22.4,00.0,30.6,23.9,09.3,0000.0,0002.43,0005.79,0001.86
2023-04-06 15:30:00,,0835.5,4.99,0.00,22.3,21.9,00.0,30.6,23.7,08.8,0000.0,0002.43,0005.77,0001.84
2023-04-06 15:31:00,,0835.5,5.02,0.00,22.3,21.5,00.0,30.6,23.6,09.0,0000.0,0002.42,0006.47,0001.84
2023-04-06 15:32:00,,0835.5,5.01,0.00,22.2,21.1,00.0,30.6,23.5,09.3,0000.0,0002.42,0006.69,0001.82
2023-04-06 15:33:00,,0835.5,5.00,0.00,22.2,20.8,00.0,30.6,23.4,09.6,0000.0,0002.39,0006.57,0001.80
2023-04-06 15:34:00,,0835.5,4.99,0.00,22.1,20.5,00.0,30.6,23.3,08.8,0000.0,0002.36,0006.68,0001.77
2023-04-06 15:35:00,,0835.5,5.01,0.00,22.1,20.3,00.0,30.5,23.3,09.2,0000.0,0002.29,0007.46,0001.76
2023-04-06 15:36:00,,0835.5,4.99,0.00,22.1,20.2,00.0,30.5,23.2,09.3,0000.0,0002.25,0007.27,0001.78
2023-04-06 15:37:00,,0835.5,4.99,0.00,22.0,20.0,00.0,30.5,23.2,09.3,0000.0,0002.29,0007.61,0001.81
2023-04-06 15:38:00,,0835.5,5.02,0.00,22.0,20.2,00.0,30.5,23.3,09.1,0000.0,0002.30,0006.81,0001.81
2023-04-06 15:39:00,,0835.5,5.00,0.00,22.1,21.7,00.0,30.4,23.9,09.0,0000.0,0002.28,0006.70,0001.79
2023-04-06 15:40:00,,0835.5,5.00,0.00,22.3,22.9,00.0,30.4,24.2,08.3,0000.0,0002.23,0006.50,0001.76
2023-04-06 15:41:00,,0835.5,4.99,0.00,22.3,22.7,00.0,30.5,24.0,08.6,0000.0,0002.17,0006.34,0001.74
2023-04-06 15:42:00,,0835.5,5.01,0.00,22.3,22.3,00.0,30.5,23.8,08.2,0000.0,0002.12,0005.77,0001.69
2023-04-06 15:43:00,,0835.6,5.01,0.00,22.3,21.9,00.0,30.6,23.7,08.7,0000.0,0002.10,0005.35,0001.64
2023-04-06 15:44:00,,0835.5,5.00,0.00,22.3,21.5,00.0,30.6,23.6,08.9,0000.0,0002.12,0005.45,0001.61
2023-04-06 15:45:00,,0835.5,4.99,0.00,22.2,21.1,00.0,30.6,23.5,08.7,0000.0,0002.08,0005.72,0001.58
2023-04-06 15:46:00,,0835.5,5.02,0.00,22.2,20.8,00.0,30.6,23.4,09.0,0000.0,0002.03,0004.88,0001.55
2023-04-06 15:47:00,,0835.5,4.99,0.00,22.1,20.5,00.0,30.5,23.4,08.4,0000.0,0001.95,0004.81,0001.48
2023-04-06 15:48:00,,0835.5,5.00,0.00,22.1,20.3,00.0,30.5,23.3,08.6,0000.0,0001.83,0004.11,0001.40
2023-04-06 15:49:00,,0835.5,5.01,0.00,22.1,20.1,00.0,30.5,23.2,08.9,0000.0,0001.78,0003.93,0001.33
2023-04-06 15:50:00,,0835.5,5.00,0.00,22.0,20.0,00.0,30.5,23.2,08.7,0000.0,0001.74,0003.93,0001.27
2023-04-06 15:51:00,,0835.6,4.99,0.00,22.0,19.9,00.0,30.5,23.1,08.4,0000.0,0001.71,0003.96,0001.21
2023-04-06 15:52:00,,0835.6,5.00,0.00,21.9,19.9,00.0,30.4,23.1,07.8,0000.0,0001.69,0003.95,0001.17
2023-04-06 15:53:00,,0835.7,5.01,0.00,22.0,21.1,00.0,30.4,23.6,07.6,0000.0,0001.65,0004.48,0001.14
2023-04-06 15:54:00,,0835.6,5.00,0.00,22.2,22.7,00.0,30.4,24.1,07.9,0000.0,0001.56,0005.76,0001.11
2023-04-06 15:55:00,,0835.6,5.00,0.00,22.3,23.0,00.0,30.4,24.2,07.7,0000.0,0001.50,0006.13,0001.08
2023-04-06 15:56:00,,0835.5,4.98,0.00,22.3,22.6,00.0,30.5,24.0,07.9,0000.0,0001.52,0005.78,0001.04
2023-04-06 15:57:00,,0835.5,5.01,0.00,22.3,22.1,00.0,30.5,23.8,07.7,0000.0,0001.48,0005.96,0000.99
2023-04-06 15:58:00,,0835.6,5.00,0.00,22.3,21.7,00.0,30.5,23.7,07.5,0000.0,0001.43,0006.16,0000.95
2023-04-06 15:59:00,,0835.5,4.99,0.00,22.2,21.4,00.0,30.5,23.7,07.4,0000.0,0001.44,0006.26,0000.94
